Wind_Speed
103 103 103 103 103 102 102 101 101 100 100 100 99 99 98 98 97 97 97 97 98 98 99 99 99 99 100 100 101 101 102 102 103 103 104 104 105 106 107 108 110 112 114 115 117 119 120 122 123 125 125 126 127 128 131 133 134 135 135 134 132 129 125 119 113 107 100 93 87 81 75 69 64 58 53 48 44 40 37 34 31 28 25 23 22 20
102 103 103 103 103 102 102 102 101 101 101 100 100 99 98 98 98 98 98 98 98 99 99 99 100 100 101 101 102 102 102 103 103 104 104 105 106 106 108 109 111 113 115 116 118 120 121 123 124 125 125 126 128 130 132 134 135 135 134 133 131 127 123 117 111 104 97 91 85 79 73 67 61 56 51 47 43 39 36 33 30 27 25 23 21 20
102 102 103 103 103 102 103 103 102 102 101 100 100 99 99 98 98 98 99 99 99 99 100 100 100 101 101 102 102 103 103 104 104 105 105 106 106 108 109 110 112 114 116 117 119 121 122 123 124 125 126 127 129 131 133 134 135 135 134 132 129 125 120 114 108 101 94 88 82 76 71 65 59 54 49 45 41 38 35 32 29 26 24 22 21 20
101 101 102 103 103 103 103 103 103 102 101 100 100 99 99 99 99 99 99 99 100 100 100 101 101 101 102 102 103 103 104 104 105 105 106 107 108 109 110 112 113 115 117 118 120 121 122 123 124 125 126 128 130 132 134 135 135 135 133 131 127 123 117 111 105 98 91 85 80 74 68 63 57 52 48 43 40 36 33 31 28 26 24 22 21 20
101 101 102 103 104 104 104 104 103 102 101 100 100 99 99 99 99 99 99 100 100 100 101 101 102 102 102 103 103 104 104 105 105 106 107 108 109 110 111 113 114 116 118 119 121 122 123 124 124 126 127 129 131 133 134 135 135 134 132 129 125 120 114 108 101 95 88 83 77 72 66 61 55 51 46 42 38 35 32 30 27 25 23 22 21 20
101 102 103 104 104 105 105 104 103 102 101 100 100 100 99 99 99 100 100 100 101 101 101 102 102 103 103 103 104 104 105 106 106 107 108 109 110 111 113 114 116 117 119 120 121 122 123 124 125 126 128 130 132 134 135 135 135 133 131 127 123 118 112 105 98 92 86 80 75 69 64 58 53 49 44 40 37 34 31 29 26 24 23 22 21 20
102 104 105 105 105 105 104 103 102 102 101 101 100 100 100 100 100 100 100 101 101 101 102 102 103 103 103 104 104 105 106 107 107 108 109 110 111 113 114 115 117 118 120 121 122 122 123 125 126 128 129 131 133 134 135 135 134 132 129 125 120 115 109 102 95 89 83 77 72 67 61 56 52 47 43 39 36 33 30 28 26 24 23 22 21 20
104 105 106 106 105 105 104 103 102 101 101 101 100 100 100 101 100 101 101 101 101 102 102 103 103 104 104 104 105 106 107 108 109 110 111 111 113 114 115 117 118 119 120 121 122 123 124 126 127 129 130 132 133 135 135 135 133 131 127 123 118 112 105 99 92 86 80 75 70 64 59 54 50 45 41 38 34 31 29 27 25 24 23 22 21 21
105 106 106 105 105 104 103 102 102 101 101 101 101 101 101 101 101 101 101 102 102 102 103 103 104 104 105 105 106 107 108 109 110 111 112 113 114 115 117 118 119 120 121 122 123 124 125 127 128 130 131 133 134 135 135 134 132 129 125 120 115 109 102 95 89 83 78 72 67 62 57 52 48 44 40 36 33 30 28 26 25 24 23 22 21 21
106 105 105 104 103 103 102 102 102 101 101 101 101 101 101 101 101 101 102 102 103 103 103 104 104 105 106 107 108 108 109 110 111 112 113 114 115 117 118 119 120 120 121 122 123 125 126 128 129 131 132 134 135 135 135 133 130 127 123 117 112 105 99 92 86 80 75 70 65 60 55 50 46 42 38 35 32 30 27 26 25 23 23 22 22 21
105 104 104 103 103 102 102 102 102 102 101 101 101 101 101 101 101 102 102 103 103 104 104 105 105 106 106 108 109 110 111 112 113 114 115 116 117 118 119 120 120 121 122 123 125 126 128 129 131 132 133 134 135 135 134 132 128 125 120 114 108 102 95 89 83 78 73 67 62 57 53 48 44 40 37 34 31 29 27 26 24 24 23 22 22 22
103 103 102 102 102 102 102 102 102 102 102 102 102 102 102 102 102 102 102 103 104 104 105 106 106 107 108 109 110 111 112 113 114 115 116 117 118 119 120 120 121 122 123 124 126 127 129 130 131 133 134 135 135 134 133 130 126 122 117 111 105 99 92 86 80 75 70 65 60 55 50 46 43 39 36 33 30 28 27 25 24 24 23 23 22 22
102 102 102 102 102 102 102 102 103 103 103 102 102 102 102 103 103 103 103 104 104 105 106 107 108 108 109 110 111 112 113 114 115 116 117 118 119 120 120 121 122 123 125 126 127 128 130 131 132 133 134 135 135 133 131 128 124 119 114 108 102 95 89 83 78 73 67 62 57 53 48 44 41 37 34 32 29 28 26 25 24 24 23 23 23 23
102 101 102 102 102 102 102 103 103 103 103 103 103 103 103 103 104 104 104 105 105 106 107 108 109 110 111 112 113 113 114 115 116 117 118 119 120 120 121 122 123 124 126 127 128 130 131 132 133 134 135 135 134 132 129 126 121 116 111 105 98 92 86 80 75 70 65 60 55 51 46 43 39 36 33 31 29 27 26 25 25 24 24 23 23 23
101 101 101 102 102 102 103 103 103 104 104 104 104 104 104 104 104 104 105 106 107 108 109 109 110 111 112 113 114 115 116 116 117 118 119 120 121 121 122 123 124 126 127 128 129 130 132 133 134 134 135 134 133 130 127 123 118 113 107 101 95 88 83 77 72 67 62 57 53 48 45 41 38 35 32 30 28 27 26 25 25 24 24 24 24 24
101 101 101 102 102 103 103 103 104 104 104 105 105 105 105 105 105 106 106 107 108 109 110 111 112 113 114 115 116 116 117 117 118 119 120 121 122 122 123 124 125 127 128 129 130 131 132 134 134 135 134 133 131 128 124 120 115 110 104 98 91 85 80 75 69 64 60 55 51 47 43 39 36 34 31 29 28 27 26 25 25 25 25 25 25 25
101 101 102 102 102 103 103 104 104 105 105 105 105 105 105 106 106 107 108 109 110 111 112 113 113 114 116 117 117 118 118 118 119 120 121 122 123 124 125 125 126 128 129 130 131 132 133 134 135 135 134 132 129 126 122 117 112 106 100 94 88 82 77 72 67 62 57 53 48 45 41 38 35 33 30 29 28 27 26 26 25 25 25 25 25 25
102 102 102 102 103 103 104 104 105 105 106 106 106 106 106 107 107 108 109 110 111 112 113 114 115 116 117 117 118 119 119 119 119 120 122 123 124 125 126 127 127 128 130 131 132 133 134 134 135 134 133 130 127 123 119 114 109 103 97 90 84 79 74 69 64 59 55 50 47 43 40 37 34 32 30 28 27 27 26 26 26 26 26 26 26 26
103 103 103 103 103 104 104 105 105 106 106 106 107 107 107 108 109 110 111 112 113 114 115 116 117 117 117 118 119 119 119 120 120 122 123 124 125 126 127 128 128 129 131 132 133 134 134 135 134 133 131 128 125 120 116 111 105 99 93 87 81 76 71 66 62 57 52 48 45 41 38 36 33 31 29 28 27 27 26 26 26 26 26 26 27 27
103 103 104 104 104 104 105 106 106 106 107 107 107 108 108 109 110 111 113 114 115 116 116 117 117 118 118 119 119 120 120 121 122 123 124 125 126 127 128 128 129 130 131 133 134 135 135 134 133 132 129 126 122 117 112 107 101 95 89 83 78 73 69 64 59 55 50 46 43 40 37 34 32 30 29 28 27 27 27 27 26 27 27 27 28 28
104 104 104 104 104 105 105 106 107 107 108 108 108 109 110 111 112 113 114 115 116 117 117 118 118 119 119 119 120 121 121 122 123 124 125 126 127 128 129 129 130 131 132 133 134 135 135 134 132 130 127 123 118 114 109 103 97 91 85 80 75 71 66 61 56 52 48 45 41 38 36 34 32 30 29 28 27 27 27 27 27 27 27 28 28 29
104 105 105 105 105 106 106 107 108 108 109 109 110 111 112 113 114 115 116 117 117 118 118 119 119 119 120 120 121 122 122 123 124 125 127 128 128 129 130 131 131 132 133 134 135 135 134 132 130 127 124 120 115 110 105 99 93 87 82 77 72 68 63 58 54 50 46 43 40 37 35 33 31 30 29 28 27 27 27 27 27 28 28 29 29 30
105 106 106 106 106 107 107 108 109 109 110 111 112 113 113 114 115 116 117 117 118 118 119 119 120 120 121 121 122 123 124 125 126 126 127 128 129 130 131 132 132 133 133 134 134 133 132 130 128 125 121 116 111 106 101 95 89 83 78 74 69 65 60 56 52 48 44 41 38 36 33 32 30 29 28 28 27 27 27 28 28 28 29 30 30 31
107 107 107 108 108 108 109 109 110 111 112 113 114 114 115 116 116 117 117 118 118 119 119 120 121 122 122 123 124 125 125 126 127 128 128 129 130 131 132 132 133 133 134 134 133 132 130 128 125 122 118 113 108 102 96 90 85 80 75 71 66 62 57 53 49 46 42 39 37 34 32 31 30 29 28 28 28 28 28 28 29 29 30 31 31 32
109 109 109 110 110 110 111 111 112 113 114 114 115 116 116 117 117 118 118 119 119 120 120 121 122 123 124 125 126 126 127 128 128 129 129 130 131 132 133 133 133 132 133 133 132 131 128 125 122 119 114 109 104 98 92 86 81 76 72 68 64 59 55 51 47 44 41 38 35 33 31 30 29 29 28 28 28 28 29 29 30 30 31 32 32 33
111 111 111 112 112 112 113 113 114 114 115 116 116 117 117 117 118 118 119 120 120 121 122 123 124 125 126 127 127 128 129 129 130 130 130 130 131 132 133 134 133 132 132 131 130 129 126 122 119 115 110 105 99 93 87 82 77 73 69 65 61 56 52 48 45 42 39 36 34 32 31 30 29 28 28 28 29 29 29 30 30 31 32 32 33 34
113 113 113 114 114 114 114 115 115 115 116 116 117 117 118 118 119 120 120 121 122 123 124 125 126 127 128 129 129 129 130 130 131 131 131 131 131 132 133 133 133 132 131 130 128 126 123 119 115 111 106 100 94 89 83 78 74 70 66 62 58 53 49 46 43 40 37 35 33 31 30 29 29 29 29 29 29 30 30 31 31 32 33 33 34 35
114 114 115 115 115 115 115 115 116 116 116 117 117 118 119 119 120 121 122 123 124 125 126 127 128 129 129 130 130 131 131 131 131 132 132 132 131 131 132 132 132 131 129 128 126 124 120 116 111 106 101 95 90 84 79 75 71 67 63 59 55 51 47 44 41 38 36 34 32 30 30 29 29 29 29 29 30 30 31 32 32 33 34 34 35 35
115 115 115 116 116 116 116 116 116 117 117 118 118 119 120 121 122 123 124 125 126 127 128 129 130 130 131 131 132 132 132 132 132 132 132 131 131 132 132 132 131 129 127 125 123 121 117 113 107 101 96 90 85 80 76 72 68 64 60 56 52 48 45 42 39 37 34 32 31 30 29 29 29 29 30 30 31 31 32 32 33 34 34 35 36 36
116 116 116 116 117 117 117 117 117 118 118 119 120 121 122 123 124 125 126 127 128 129 130 130 131 132 132 132 132 132 133 133 133 133 132 131 130 131 131 130 129 128 125 122 119 116 113 108 103 97 91 86 81 77 73 69 65 61 57 53 49 46 43 40 37 35 33 31 30 30 29 29 29 30 30 31 31 32 33 33 34 35 35 36 36 36
117 117 117 118 118 118 118 119 119 120 121 122 123 124 125 126 127 127 128 129 130 130 131 132 132 132 132 132 132 132 132 133 134 133 132 130 130 130 130 129 127 125 123 119 115 110 106 103 98 92 87 81 77 73 69 66 62 58 54 50 47 44 41 38 36 34 32 31 30 29 29 29 30 30 31 31 32 33 33 34 35 35 36 36 36 36
118 119 119 120 120 120 121 121 122 123 124 125 126 127 127 128 129 130 130 131 131 131 132 132 133 133 133 133 132 132 132 132 133 133 132 130 129 129 129 127 124 122 120 116 111 106 100 96 92 87 82 78 73 70 66 63 59 55 51 48 44 42 39 37 34 33 31 30 30 30 30 30 30 31 31 32 33 33 34 35 35 36 36 36 36 36
121 121 122 122 123 123 124 124 125 126 127 128 129 129 130 131 131 132 132 132 132 133 132 133 133 133 133 133 133 133 133 132 133 132 131 129 128 127 127 124 121 118 115 112 107 102 96 91 86 82 78 74 70 67 63 60 56 52 49 45 42 40 38 35 33 32 31 30 30 30 30 30 31 31 32 33 33 34 35 35 36 36 36 36 36 36
125 125 126 126 126 127 127 128 128 129 130 131 131 132 132 133 133 133 133 134 134 134 133 133 133 133 133 133 133 133 133 132 132 131 130 127 126 125 123 121 118 114 110 106 101 96 91 86 82 78 74 71 67 64 60 56 53 50 46 43 41 38 36 34 33 31 31 30 30 30 30 31 31 32 32 33 34 34 35 35 35 35 35 35 35 35
129 130 130 130 130 131 131 131 132 132 133 133 134 134 134 134 134 135 135 135 135 135 135 134 134 133 133 132 132 131 131 131 130 129 127 125 123 121 119 117 113 109 105 100 95 90 86 82 78 74 71 67 64 61 57 53 50 47 44 42 39 37 35 34 32 31 31 30 30 31 31 31 32 32 33 33 33 34 34 34 34 35 35 35 35 35
134 134 134 134 134 135 135 135 135 135 135 135 136 135 135 135 135 135 135 135 135 135 135 134 134 133 132 131 130 129 128 128 128 127 125 123 120 118 115 112 108 104 99 94 90 85 81 77 74 71 68 64 61 58 54 51 48 45 42 40 38 36 35 33 32 31 31 31 31 31 31 31 32 32 32 33 33 33 33 34 34 34 34 34 34 35
138 138 138 138 138 138 138 138 137 137 137 137 136 136 136 136 135 135 135 134 134 133 133 132 132 131 130 129 128 127 126 126 125 124 122 119 117 113 110 106 102 98 93 88 84 80 77 74 71 68 65 61 58 54 51 48 46 43 41 39 37 35 34 33 32 31 31 31 31 31 31 31 32 32 32 32 32 33 33 33 33 34 34 34 34 35
141 141 141 140 140 140 139 139 138 138 137 136 136 135 135 134 134 133 133 132 131 131 130 129 129 128 127 127 126 125 125 123 122 120 118 115 112 108 104 100 96 92 88 83 79 76 73 70 67 64 62 58 55 51 48 46 43 41 40 38 36 35 34 33 32 32 31 31 31 31 31 31 31 32 32 32 32 32 33 33 33 33 34 34 34 35
142 141 141 141 140 139 139 138 137 137 136 135 134 134 133 132 132 131 130 130 129 128 128 127 127 126 125 125 124 123 122 120 119 116 113 110 107 103 98 94 90 86 82 79 75 72 69 67 64 61 58 55 52 49 46 44 42 40 38 37 35 34 33 33 32 32 31 31 31 31 31 31 31 31 31 31 32 32 32 33 33 33 33 34 34 35
140 140 140 139 139 138 137 136 135 134 134 133 132 132 131 130 130 129 129 128 127 127 126 126 125 124 124 123 122 120 119 117 114 112 108 105 101 97 92 88 84 81 78 75 72 69 66 64 61 58 55 52 49 46 44 42 41 39 37 36 35 34 33 33 32 32 31 31 31 31 31 31 31 31 31 31 31 32 32 32 33 33 33 34 35 35
139 138 138 137 137 136 135 134 133 132 132 131 130 130 129 129 128 128 127 127 126 126 125 124 123 122 121 120 119 117 115 112 109 106 102 98 94 90 86 83 79 76 73 71 68 66 63 61 58 55 52 49 46 44 42 41 39 38 36 35 35 34 33 33 32 32 31 31 31 30 30 30 30 30 31 31 31 31 32 32 32 33 33 34 35 36
137 137 136 136 135 134 133 132 131 131 130 129 129 128 128 128 127 126 126 125 125 124 123 122 120 119 117 116 115 113 110 107 104 100 96 92 88 84 81 78 75 72 70 67 65 63 60 58 55 52 49 47 44 43 41 40 38 37 36 35 34 34 34 33 32 32 31 31 30 30 30 30 30 30 30 31 31 31 31 32 32 33 34 35 36 37
136 135 135 134 133 132 131 130 130 129 129 128 127 127 127 126 125 124 124 123 122 121 120 118 117 115 113 111 109 108 105 101 98 94 89 86 82 79 76 73 71 69 66 64 62 60 57 55 52 49 47 45 43 41 40 39 38 37 36 35 34 34 33 33 32 31 31 30 30 30 30 30 30 30 30 30 31 31 32 32 33 34 35 36 37 38
135 134 133 132 131 131 130 129 128 127 127 126 125 125 125 124 123 122 120 120 119 117 116 114 112 110 108 106 104 101 98 95 91 87 83 80 77 74 72 70 67 65 63 61 59 57 54 52 49 47 45 43 41 40 39 38 37 36 36 35 34 34 33 33 32 31 31 30 30 30 30 30 30 30 30 31 31 32 32 33 34 35 36 37 38 40
133 132 131 130 129 128 127 126 126 125 124 123 122 122 121 120 119 118 117 116 114 113 111 109 107 104 102 100 97 94 91 88 85 81 78 76 73 71 68 66 64 62 60 58 56 54 51 49 47 45 43 42 40 39 39 38 37 36 35 35 34 34 33 32 32 31 30 30 30 30 29 29 30 30 30 31 32 32 33 34 35 36 37 39 40 40
130 129 128 127 126 125 124 123 123 122 120 120 119 118 117 116 115 114 112 111 109 107 105 103 101 98 96 93 91 88 85 82 79 76 74 71 69 67 65 63 61 59 57 55 53 51 49 47 45 43 42 41 40 39 38 37 37 36 35 35 34 33 33 32 31 31 30 30 30 29 29 29 30 30 31 31 32 33 34 35 36 37 39 39 40 41
126 125 124 123 122 121 120 119 118 117 116 115 114 114 112 111 110 109 108 106 104 101 99 97 95 92 89 87 84 82 79 77 74 72 70 68 66 64 62 60 58 56 54 53 51 49 47 45 43 42 41 40 39 38 38 37 36 35 35 34 34 33 32 32 31 31 30 30 29 29 29 30 30 31 31 32 33 34 35 36 37 38 39 40 41 41
121 120 119 118 117 116 115 114 113 112 111 110 109 108 107 106 105 103 102 100 98 95 93 90 88 86 83 81 79 77 75 72 71 69 67 65 63 61 59 57 56 54 52 50 48 47 45 44 42 41 40 39 38 38 37 37 36 35 35 34 34 33 32 32 31 30 30 30 30 30 30 30 30 31 32 33 34 35 36 37 38 39 39 40 41 41
116 115 114 113 112 111 110 109 108 107 106 105 104 103 102 101 100 98 96 94 91 89 86 84 82 80 78 76 75 73 71 69 67 66 64 62 60 58 56 55 53 51 49 48 46 45 43 42 41 40 39 38 38 37 37 36 36 35 35 34 34 33 33 32 31 30 30 30 30 30 30 31 31 32 33 34 35 36 37 38 39 39 40 40 41 42
111 109 108 107 106 105 105 104 103 102 101 99 98 97 96 96 94 92 90 88 85 83 81 79 77 75 74 72 71 69 67 66 64 63 61 59 57 56 54 52 51 49 47 46 44 43 42 41 40 40 39 38 37 37 36 36 35 35 35 34 34 33 32 32 31 31 30 30 30 31 31 32 32 33 34 35 36 37 38 38 39 39 40 41 41 42
105 104 103 102 101 100 99 98 97 96 95 94 93 92 91 90 88 87 84 82 79 77 76 74 73 71 70 69 67 66 64 63 62 60 58 57 55 53 51 50 48 47 45 44 42 42 41 40 39 39 38 38 37 36 36 35 35 35 35 34 34 33 33 32 31 31 31 31 31 32 32 33 34 34 35 36 37 38 38 39 39 40 40 41 42 43
Wind_Direction
293 294 295 296 297 297 298 299 300 301 302 303 303 304 304 305 305 305 305 305 305 306 306 306 306 306 307 307 308 308 308 309 309 310 311 311 311 312 312 312 313 313 314 314 315 316 316 317 318 318 319 320 321 322 323 324 325 326 327 328 329 330 330 330 329 329 328 328 327 327 326 325 324 322 320 318 315 312 310 307 304 301 298 294 291 289
293 293 294 295 296 297 298 299 300 300 301 302 302 303 303 304 304 304 304 304 305 305 305 305 305 306 306 307 307 307 308 308 309 309 310 310 311 311 311 312 312 313 313 314 314 315 316 316 317 318 319 320 321 322 323 324 325 326 327 328 329 329 329 329 329 328 328 327 326 326 325 324 323 321 319 316 313 310 308 305 302 299 295 292 289 287
292 293 294 295 296 296 297 298 299 300 300 301 301 302 302 303 303 303 303 303 304 304 304 304 305 305 305 306 306 307 307 308 308 309 309 310 310 310 311 311 312 312 313 313 314 315 315 316 317 318 319 319 321 322 323 324 325 326 327 328 328 329 329 329 328 327 327 326 326 325 324 323 321 319 317 314 312 309 306 303 300 296 293 290 288 286
292 293 293 294 295 296 297 298 298 299 299 300 300 301 301 301 302 302 302 302 303 303 303 304 304 304 305 305 306 306 306 307 307 308 308 309 309 310 310 311 311 312 312 313 313 314 315 316 316 317 318 319 320 322 323 324 325 326 327 328 328 328 328 328 327 327 326 325 325 324 323 322 320 318 315 313 310 307 303 300 297 294 291 288 286 284
291 292 293 294 295 295 296 297 298 298 298 299 299 299 300 300 300 301 301 301 302 302 302 303 303 304 304 304 305 305 306 306 307 307 308 308 309 309 310 310 310 311 312 312 313 314 314 315 316 317 318 319 320 321 323 324 325 326 327 327 328 328 328 327 327 326 325 325 324 323 322 321 319 316 314 311 308 305 301 298 295 292 288 286 284 283
290 291 292 293 294 295 296 296 297 297 297 297 298 298 299 299 299 300 300 300 301 301 302 302 303 303 303 304 304 304 305 305 306 306 307 307 308 308 309 309 310 310 311 312 312 313 314 315 316 317 318 319 320 321 323 324 325 326 326 327 327 327 327 326 326 325 324 324 323 322 321 319 317 315 312 309 306 303 299 296 292 289 286 284 282 281
290 290 292 293 293 294 295 295 295 296 296 296 297 297 298 298 298 299 299 299 300 300 301 301 302 302 303 303 303 304 304 305 305 306 306 307 307 308 308 309 309 310 311 311 312 313 314 315 316 317 318 319 320 321 323 324 325 326 326 327 327 327 326 326 325 324 324 323 322 321 319 318 316 313 311 307 304 300 296 293 289 286 284 282 281 280
289 290 291 292 293 293 294 294 294 294 295 295 296 296 297 297 297 298 298 299 299 300 300 301 301 301 302 302 302 303 303 304 304 305 306 306 307 307 308 308 309 309 310 311 312 312 313 314 315 316 318 319 320 321 323 324 324 325 326 326 326 326 325 325 324 323 323 322 321 320 318 316 314 311 309 305 302 298 294 290 287 284 282 280 279 279
289 290 291 291 292 292 293 293 293 293 294 294 294 295 295 296 296 297 297 298 298 299 299 300 300 301 301 301 302 302 303 303 304 304 305 306 306 307 307 308 308 309 310 310 311 312 313 314 315 316 318 319 320 321 322 323 324 325 325 326 325 325 325 324 323 323 322 321 320 318 316 314 312 309 307 303 299 295 291 287 284 282 280 278 278 279
288 289 290 290 291 291 291 291 292 292 293 293 293 294 294 295 295 296 296 297 298 298 299 299 299 300 300 301 301 301 302 303 303 304 304 305 305 306 307 307 308 309 309 310 311 312 313 314 315 316 318 319 320 321 322 323 324 325 325 325 325 324 324 323 322 322 321 320 319 317 315 312 310 307 304 301 297 292 289 285 282 279 278 277 277 278
287 288 289 289 290 290 290 290 291 291 292 292 292 293 293 294 294 295 295 296 297 298 298 298 298 299 299 300 300 301 301 302 303 303 304 304 305 305 306 307 307 308 309 310 311 312 313 314 315 316 318 319 320 321 322 323 324 324 324 324 324 323 323 322 322 321 320 319 317 315 313 311 308 305 302 298 294 290 286 282 280 278 276 276 276 277
286 287 288 288 289 289 289 290 290 290 291 291 292 292 293 293 294 294 294 295 296 296 297 297 298 298 298 299 299 300 301 301 302 303 303 304 304 305 306 306 307 308 309 310 311 312 313 314 315 316 318 319 320 321 322 323 323 324 324 324 323 323 322 321 321 320 319 317 316 314 311 308 306 303 299 295 291 287 283 280 278 276 275 275 276 277
286 286 287 287 288 288 288 289 289 290 290 290 291 291 292 292 293 293 294 294 295 295 296 296 297 298 298 298 299 299 300 301 301 302 303 303 304 305 305 306 307 308 309 310 311 312 313 314 315 316 318 319 320 321 322 323 323 323 323 323 322 322 321 320 320 319 318 316 314 312 309 306 303 300 297 292 288 284 281 278 276 275 274 274 275 276
285 286 286 286 287 287 287 288 288 289 289 289 290 290 291 291 292 293 293 294 294 295 295 296 296 297 297 298 298 299 299 300 301 301 302 303 303 304 305 306 307 308 309 310 311 312 313 314 315 316 317 319 320 321 322 322 322 322 322 322 321 321 320 319 319 318 316 314 312 310 307 304 301 297 294 289 285 281 278 276 274 273 273 274 275 276
284 285 285 285 286 286 287 287 287 288 288 289 289 290 290 291 291 292 292 293 293 294 295 295 296 296 297 297 298 298 299 300 300 301 301 302 303 304 305 306 307 307 308 309 311 312 313 314 315 316 317 319 320 321 321 322 322 322 321 321 320 320 319 319 318 316 315 313 310 308 305 302 298 295 291 286 282 279 276 274 273 272 273 273 274 275
283 284 284 284 285 285 286 286 286 287 287 288 288 289 289 290 290 291 291 292 293 293 294 295 295 296 296 297 297 298 298 299 300 300 301 302 303 303 304 305 306 307 308 309 311 312 313 314 315 316 317 318 320 320 321 321 321 321 321 320 319 319 318 318 317 315 313 311 308 306 302 299 296 292 287 283 279 276 274 272 271 271 272 273 274 275
282 282 283 283 284 284 285 285 285 286 286 287 287 288 288 289 290 290 291 291 292 293 293 294 294 295 295 296 297 298 298 299 299 300 300 301 302 303 304 305 306 307 308 309 311 312 313 314 315 316 317 318 319 320 320 321 320 320 320 319 318 318 317 317 315 314 311 309 306 303 300 296 293 289 284 280 277 274 272 271 271 271 271 273 274 275
281 281 282 282 283 283 284 284 284 285 285 286 286 287 288 288 289 289 290 291 291 292 293 293 294 294 295 295 296 297 298 298 299 299 300 301 302 303 304 305 306 307 308 309 311 312 313 314 315 316 317 318 319 320 320 320 320 319 319 318 318 317 316 315 314 312 310 307 304 301 298 294 290 286 281 277 274 272 270 269 269 270 271 272 274 275
280 280 281 281 282 282 282 283 283 284 284 285 286 286 287 287 288 289 289 290 291 291 292 293 293 294 294 294 295 296 297 298 298 299 300 301 302 303 304 305 306 307 308 310 311 312 313 314 315 316 317 318 319 319 319 319 319 318 318 317 317 316 315 314 312 310 308 305 302 299 295 291 287 283 279 275 272 270 269 268 269 270 271 272 273 274
279 279 280 280 281 281 281 282 282 283 284 284 285 285 286 286 287 288 288 289 290 291 291 292 292 293 293 294 295 296 297 297 298 299 300 301 302 303 304 305 306 307 308 310 311 312 313 314 315 316 317 318 318 318 318 318 318 317 317 316 316 315 314 313 311 308 306 303 300 296 293 289 285 280 276 273 270 268 267 267 268 269 270 272 273 274
278 278 279 279 279 280 280 281 282 282 283 283 284 284 285 286 286 287 288 289 289 290 291 291 292 292 293 294 294 295 296 297 298 299 300 301 302 303 304 305 306 307 308 309 310 312 313 314 315 316 317 317 318 318 318 317 317 316 316 315 315 314 313 311 309 307 304 301 297 294 290 286 282 278 274 271 269 267 267 267 268 269 270 271 272 273
276 277 278 278 279 279 279 280 281 281 282 283 283 284 284 285 286 287 287 288 289 289 290 290 291 292 293 293 294 295 296 297 298 299 300 301 302 303 304 305 306 307 308 309 310 311 312 314 315 316 316 317 317 317 317 316 316 315 315 314 314 313 311 309 307 305 302 299 295 291 288 284 280 276 272 270 268 266 266 266 267 268 270 271 272 273
276 276 277 277 278 278 279 279 280 281 281 282 282 283 284 285 285 286 287 287 288 289 289 290 291 292 292 293 294 295 296 297 298 299 300 301 302 303 304 305 306 307 308 309 310 311 312 313 314 315 316 316 316 316 316 315 315 314 314 313 313 311 310 308 305 302 300 296 293 289 285 281 277 274 271 268 267 265 265 266 267 268 269 270 271 272
275 275 276 277 277 278 278 279 279 280 281 281 282 283 283 284 285 285 286 287 287 288 289 290 290 291 292 293 294 295 296 297 298 299 300 301 302 303 304 305 306 307 308 309 310 311 312 313 314 315 315 316 315 315 315 314 314 313 313 312 311 310 308 306 303 300 297 294 290 287 283 279 275 272 269 267 266 265 265 265 266 267 269 270 271 271
274 275 275 276 276 277 278 278 279 279 280 281 282 282 283 284 284 285 286 286 287 288 289 289 290 291 292 293 294 295 296 297 298 299 300 301 302 303 304 305 306 307 308 309 310 311 312 313 314 314 315 315 314 314 314 313 313 312 312 311 310 308 306 304 301 298 295 292 288 284 280 276 273 270 267 265 265 264 264 265 266 267 268 269 270 271
274 275 275 276 276 277 277 278 278 279 280 280 281 282 282 283 284 285 285 286 287 288 289 289 290 291 292 293 294 295 296 297 298 299 300 301 302 303 304 305 306 307 308 309 310 311 312 313 313 314 314 314 313 313 312 312 312 311 311 310 308 306 304 302 299 296 293 289 285 281 278 274 270 267 265 264 263 263 264 264 265 266 268 268 269 270
274 274 275 275 276 276 277 277 278 278 279 280 280 281 282 283 283 284 285 286 287 288 288 289 290 291 292 293 294 295 296 297 298 299 300 301 302 303 304 305 306 307 308 309 310 311 312 313 313 313 313 313 312 312 311 311 311 310 309 308 307 305 302 299 297 294 290 287 283 279 275 271 268 266 264 263 263 263 263 264 265 266 267 268 269 270
273 273 274 275 275 276 276 277 277 278 279 279 280 281 281 282 283 284 285 286 287 288 289 289 290 291 292 293 294 295 296 297 298 299 300 301 302 303 304 305 306 307 308 309 310 311 312 312 312 312 312 312 311 311 310 310 310 309 308 307 305 303 300 297 294 291 288 284 280 276 273 269 266 264 263 262 262 262 263 264 265 266 267 268 268 269
272 273 273 274 274 275 276 276 277 277 278 279 279 280 281 282 283 284 285 286 287 288 289 290 291 291 292 293 294 295 296 297 298 299 300 301 302 303 304 305 306 307 308 309 310 311 311 311 311 311 311 311 310 310 310 309 309 308 307 305 303 300 298 295 292 289 285 281 277 274 270 267 265 263 262 261 262 262 263 264 265 265 266 267 268 269
272 272 273 273 274 274 275 275 276 277 278 278 279 280 281 282 283 284 285 286 287 288 289 290 291 292 293 294 294 295 296 297 298 299 300 301 302 303 304 305 306 307 308 309 310 310 310 310 310 310 310 309 309 309 309 308 307 306 305 303 301 298 296 293 290 286 283 279 275 272 269 266 264 262 261 261 261 262 263 264 264 265 266 267 269 270
271 271 272 273 273 274 274 275 276 277 277 278 279 280 281 282 283 284 285 286 287 288 289 290 291 292 293 294 295 295 296 297 298 299 300 301 302 303 304 305 306 307 308 308 309 309 309 309 309 309 309 308 308 308 308 307 306 305 303 301 299 296 294 291 288 284 280 277 273 270 267 265 263 262 261 261 262 262 263 264 265 266 267 268 270 272
271 271 272 272 273 274 274 275 276 277 277 278 279 280 281 282 283 284 285 286 287 288 289 290 291 292 293 294 294 295 296 297 298 298 300 301 302 303 304 305 306 307 307 308 308 308 308 308 308 308 308 308 307 307 306 306 304 303 301 299 297 294 292 289 285 282 278 275 271 269 266 264 263 262 262 262 262 263 263 264 266 267 268 270 272 274
270 271 272 272 273 274 274 275 276 277 278 279 280 281 282 283 284 285 286 287 288 288 289 290 291 292 293 293 294 295 296 297 297 298 299 301 302 303 304 305 306 306 307 307 307 307 307 307 307 307 307 307 306 306 305 304 303 301 299 297 295 292 289 287 283 280 276 273 270 268 265 264 263 262 262 262 263 264 265 266 267 269 270 272 274 275
270 271 272 272 273 274 275 275 276 277 278 279 280 281 282 283 284 285 286 287 287 288 289 290 291 292 292 293 294 295 295 296 297 298 299 301 302 303 304 305 305 306 306 306 306 306 306 306 306 306 306 306 305 304 303 302 301 299 297 295 292 290 287 284 281 278 275 272 269 267 265 264 263 263 263 264 264 265 267 268 269 271 272 274 275 276
270 271 272 273 273 274 275 276 277 278 278 279 280 281 282 283 284 285 286 286 287 288 289 289 290 291 292 293 294 294 295 296 297 298 299 301 302 303 303 304 305 305 305 305 305 305 305 305 305 305 305 304 304 303 302 300 299 297 295 293 290 288 285 282 279 276 273 271 268 267 265 265 264 264 264 265 266 267 268 270 271 272 274 275 276 277
270 271 272 273 274 274 275 276 277 278 279 280 280 281 282 283 284 284 285 286 287 287 288 289 290 290 291 292 293 294 295 296 297 298 300 301 302 302 303 304 304 304 304 304 304 304 304 304 304 304 304 303 302 301 300 299 297 295 293 291 288 286 283 281 278 275 272 270 268 267 266 265 265 265 266 266 267 268 270 271 272 273 274 275 276 278
270 271 272 273 273 274 275 276 277 278 279 280 280 281 282 283 283 284 285 285 286 287 288 289 289 290 291 292 293 294 295 296 297 298 300 300 301 302 303 303 303 303 303 303 303 303 303 303 303 303 302 302 300 299 298 297 295 293 291 289 286 284 281 279 277 274 272 270 269 267 267 266 266 266 267 268 268 269 270 271 272 274 275 276 277 278
270 271 272 272 273 274 275 276 277 278 278 279 280 281 282 282 283 284 284 285 286 287 288 289 289 290 291 292 293 294 295 296 297 298 299 300 301 301 302 302 302 302 302 302 302 302 302 302 302 302 301 300 299 297 296 294 293 291 289 287 284 282 279 277 275 274 272 270 269 268 267 267 267 267 268 268 269 270 271 272 273 274 275 276 277 278
270 271 272 272 273 274 275 276 277 277 278 279 280 281 281 282 283 284 284 285 286 287 288 289 290 291 291 293 293 294 295 296 297 298 299 300 300 301 301 301 301 301 301 301 301 301 301 301 300 300 299 298 297 296 294 293 291 289 287 285 282 280 278 276 274 273 271 270 269 268 268 267 267 268 268 269 269 270 271 272 273 274 276 277 278 278
270 271 272 273 273 274 275 276 277 277 278 279 280 280 281 282 283 284 284 285 286 287 288 289 290 291 292 293 293 294 295 296 297 298 299 299 300 300 300 300 300 300 300 300 300 300 300 299 299 298 297 296 295 293 292 291 289 287 285 282 279 277 276 275 273 272 271 270 269 268 268 268 268 268 268 269 270 271 272 273 274 275 276 277 278 279
270 271 272 273 273 274 275 276 276 277 278 279 280 280 281 282 283 284 284 285 286 287 288 289 290 291 292 292 293 294 295 296 297 297 298 298 299 299 299 299 299 299 299 299 299 299 298 298 297 296 295 294 293 291 290 288 286 284 282 279 277 276 275 274 272 271 270 269 269 268 268 268 268 268 268 269 270 271 272 273 274 276 277 278 279 280
271 271 272 273 273 274 275 276 276 277 278 279 280 280 281 282 283 283 284 285 286 287 288 289 290 291 292 292 293 294 295 296 296 297 297 298 298 298 298 298 298 298 298 298 297 297 297 296 295 294 293 292 291 289 288 286 284 282 280 277 276 275 273 272 271 270 270 269 268 268 267 267 268 268 269 269 270 271 273 274 275 276 278 278 279 280
271 271 272 273 274 274 275 276 277 277 278 279 280 280 281 282 282 283 284 285 286 287 288 289 290 290 291 292 293 294 294 295 296 296 296 297 297 297 297 297 297 296 296 296 296 296 295 294 293 292 291 290 289 287 285 284 282 280 278 276 274 272 271 271 270 270 269 268 268 267 267 267 268 268 269 270 271 272 274 275 276 277 278 279 279 280
271 272 272 273 274 275 275 276 277 277 278 279 279 280 281 282 282 283 284 285 286 287 288 288 289 290 291 292 293 293 294 294 295 295 295 295 295 295 295 295 295 295 295 295 294 294 293 292 291 290 289 288 287 285 283 282 280 278 276 274 273 271 270 270 270 269 268 268 267 267 267 267 268 269 270 271 272 273 275 276 277 277 278 279 279 280
271 272 273 273 274 275 275 276 277 277 278 279 279 280 281 281 282 283 284 285 286 287 287 288 289 290 291 292 292 293 293 294 294 294 294 294 294 294 294 294 294 294 294 293 292 292 291 290 289 288 287 286 285 283 281 280 278 276 274 273 272 270 270 269 269 268 268 267 267 267 267 268 269 270 271 272 274 275 276 277 277 278 278 279 280 281
271 272 272 273 274 274 275 276 276 277 278 278 279 280 280 281 282 283 284 284 285 286 287 288 289 290 290 291 292 292 292 293 293 293 293 293 293 293 293 293 293 292 292 291 291 290 289 288 287 286 285 284 283 281 280 278 277 275 273 272 270 269 268 268 268 267 267 267 268 268 268 269 270 271 273 274 275 276 276 277 278 278 278 279 280 281
271 272 272 273 274 274 275 276 276 277 278 278 279 279 280 281 282 283 283 284 285 286 287 288 289 289 290 291 291 291 292 292 292 292 292 292 292 292 292 291 291 290 290 289 288 288 287 286 285 284 283 282 281 280 278 277 275 273 272 270 269 268 267 267 267 267 267 268 268 269 269 270 271 273 274 275 276 276 277 277 277 278 279 280 281 282
271 271 272 273 273 274 275 275 276 277 277 278 279 279 280 281 282 282 283 284 285 286 287 288 288 289 289 290 290 290 291 291 291 291 291 291 290 290 290 290 289 288 288 287 286 285 284 284 283 282 281 280 279 278 277 275 274 272 271 269 268 267 266 266 267 267 268 268 269 270 270 271 273 274 275 276 276 276 276 277 277 278 279 280 281 282
271 271 272 273 273 274 274 275 276 276 277 278 278 279 280 281 281 282 283 284 285 286 287 287 288 288 289 289 289 289 289 289 289 289 289 289 289 289 288 288 287 286 286 285 284 283 282 282 281 280 279 279 278 277 275 274 272 271 270 268 267 266 266 266 267 267 268 269 270 271 271 272 273 274 275 275 276 276 276 277 278 279 280 281 282 283
271 271 272 272 273 274 274 275 275 276 277 277 278 279 280 280 281 282 283 284 285 286 286 287 287 288 288 288 288 288 288 288 288 288 288 287 287 287 286 285 285 284 283 282 281 281 280 280 279 278 278 277 276 275 274 273 272 270 269 268 267 266 266 266 267 268 268 269 270 271 272 272 273 273 274 275 275 276 277 278 279 280 281 282 283 284
270 271 272 272 273 273 274 275 275 276 276 277 278 279 279 280 281 282 283 284 285 285 286 286 286 287 287 287 287 287 286 286 286 286 286 286 285 285 284 283 282 281 280 280 279 278 278 278 277 277 276 275 274 273 272 271 271 270 269 268 267 267 267 267 268 268 268 269 270 270 271 272 272 273 274 274 275 276 277 279 280 281 283 284 285 286
Height
10625 10624 10624 10624 10624 10622 10621 10620 10621 10620 10619 10619 10619 10618 10617 10616 10614 10613 10612 10611 10609 10608 10607 10605 10603 10602 10600 10598 10596 10594 10592 10590 10589 10587 10586 10584 10583 10581 10579 10577 10574 10570 10568 10565 10563 10560 10558 10555 10553 10550 10547 10544 10540 10537 10534 10531 10527 10524 10520 10516 10512 10508 10504 10500 10496 10492 10489 10485 10482 10479 10476 10474 10471 10469 10466 10464 10463 10461 10460 10459 10459 10457 10457 10456 10455 10455
10620 10620 10619 10619 10619 10618 10617 10615 10616 10616 10615 10614 10613 10613 10612 10611 10610 10609 10607 10606 10605 10604 10602 10600 10599 10597 10595 10594 10592 10590 10588 10586 10584 10583 10582 10580 10579 10577 10575 10572 10570 10567 10564 10561 10559 10557 10554 10552 10549 10546 10543 10540 10537 10534 10530 10527 10524 10520 10516 10512 10509 10504 10500 10496 10492 10489 10485 10482 10479 10475 10473 10470 10468 10466 10464 10462 10460 10459 10458 10457 10456 10455 10455 10454 10454 10454
10615 10615 10614 10614 10614 10614 10612 10612 10611 10611 10610 10610 10609 10608 10608 10607 10606 10605 10604 10602 10600 10599 10597 10596 10595 10593 10591 10589 10587 10585 10583 10581 10580 10579 10577 10576 10574 10573 10571 10569 10566 10563 10560 10557 10555 10553 10550 10547 10545 10542 10539 10535 10532 10529 10526 10523 10519 10516 10512 10509 10505 10500 10497 10492 10489 10485 10481 10478 10475 10472 10470 10468 10465 10464 10462 10460 10458 10457 10455 10455 10454 10454 10453 10452 10452 10452
10611 10610 10609 10609 10609 10609 10608 10607 10607 10606 10606 10605 10605 10604 10604 10603 10602 10600 10599 10598 10597 10595 10593 10592 10590 10589 10587 10585 10583 10580 10579 10577 10575 10574 10573 10572 10570 10569 10567 10564 10562 10559 10557 10554 10552 10549 10547 10544 10541 10538 10535 10532 10529 10525 10522 10519 10515 10512 10509 10505 10500 10497 10493 10489 10485 10482 10478 10475 10472 10469 10467 10465 10462 10460 10459 10457 10456 10455 10454 10452 10452 10451 10451 10450 10450 10450
10606 10606 10605 10605 10604 10604 10603 10603 10603 10602 10602 10601 10600 10600 10599 10599 10597 10596 10595 10594 10592 10590 10589 10587 10586 10584 10582 10580 10579 10576 10574 10572 10571 10570 10569 10567 10565 10564 10562 10560 10558 10555 10553 10550 10548 10545 10542 10540 10537 10534 10531 10528 10525 10522 10519 10515 10512 10508 10504 10500 10497 10493 10489 10485 10482 10478 10475 10472 10469 10466 10464 10462 10460 10458 10456 10455 10454 10452 10451 10450 10450 10449 10449 10449 10449 10448
10602 10602 10601 10601 10600 10600 10599 10599 10598 10597 10597 10596 10595 10595 10595 10594 10593 10592 10590 10589 10588 10587 10585 10584 10582 10580 10579 10576 10574 10572 10570 10569 10567 10565 10564 10563 10562 10560 10558 10556 10554 10551 10549 10546 10544 10541 10539 10536 10533 10530 10527 10524 10521 10518 10514 10511 10507 10504 10500 10497 10493 10489 10485 10482 10478 10475 10471 10468 10465 10463 10460 10459 10457 10455 10454 10452 10451 10450 10449 10449 10448 10447 10447 10447 10447 10446
10597 10597 10597 10597 10596 10595 10595 10594 10594 10593 10592 10591 10590 10590 10589 10589 10588 10587 10585 10585 10584 10582 10580 10579 10577 10576 10574 10572 10570 10568 10566 10564 10563 10562 10560 10559 10557 10555 10554 10552 10549 10547 10545 10542 10540 10537 10534 10532 10529 10526 10524 10520 10517 10514 10510 10507 10504 10500 10497 10493 10489 10485 10482 10478 10474 10471 10468 10465 10462 10460 10457 10455 10454 10452 10451 10450 10449 10448 10447 10446 10445 10445 10445 10445 10445 10445
10593 10592 10592 10592 10592 10591 10590 10589 10589 10589 10588 10587 10585 10585 10584 10583 10582 10582 10581 10580 10579 10578 10576 10575 10573 10572 10570 10568 10566 10564 10562 10560 10559 10557 10556 10554 10552 10551 10549 10547 10545 10543 10540 10538 10535 10533 10530 10527 10525 10522 10519 10516 10513 10510 10506 10503 10499 10496 10492 10489 10485 10481 10477 10474 10471 10468 10465 10462 10459 10457 10454 10453 10451 10450 10449 10447 10446 10445 10445 10444 10444 10443 10443 10443 10443 10443
10590 10589 10588 10587 10587 10587 10586 10584 10583 10584 10584 10583 10581 10580 10579 10578 10577 10576 10576 10575 10574 10574 10572 10570 10569 10567 10565 10564 10562 10560 10557 10555 10554 10553 10552 10550 10548 10546 10544 10542 10540 10538 10536 10534 10531 10528 10525 10523 10520 10518 10515 10512 10509 10505 10502 10499 10495 10492 10488 10484 10481 10477 10474 10470 10467 10464 10461 10459 10456 10454 10452 10450 10449 10447 10446 10445 10444 10443 10442 10442 10442 10441 10441 10441 10441 10441
10586 10585 10584 10583 10582 10582 10582 10580 10578 10577 10579 10578 10577 10575 10575 10574 10573 10572 10570 10569 10569 10569 10568 10566 10565 10563 10560 10559 10557 10555 10553 10551 10549 10548 10547 10545 10544 10542 10540 10538 10535 10534 10532 10529 10526 10524 10521 10519 10516 10513 10510 10507 10504 10501 10498 10495 10491 10487 10484 10480 10477 10473 10470 10467 10464 10460 10458 10455 10453 10450 10449 10447 10445 10444 10444 10442 10442 10441 10440 10440 10439 10439 10439 10439 10439 10439
10581 10580 10580 10579 10577 10576 10576 10575 10574 10573 10573 10572 10572 10570 10570 10569 10569 10568 10566 10564 10564 10563 10562 10561 10560 10559 10557 10554 10552 10549 10548 10547 10545 10544 10542 10540 10539 10537 10535 10533 10531 10529 10527 10524 10522 10519 10517 10514 10512 10509 10506 10503 10500 10497 10494 10490 10487 10484 10480 10476 10473 10469 10466 10463 10460 10457 10454 10452 10449 10447 10445 10444 10443 10442 10440 10440 10439 10439 10438 10437 10437 10437 10437 10437 10437 10437
10577 10575 10575 10574 10572 10571 10570 10569 10569 10568 10567 10567 10566 10565 10564 10564 10564 10564 10562 10560 10559 10558 10557 10556 10555 10554 10553 10550 10548 10545 10543 10542 10540 10539 10537 10535 10533 10532 10530 10528 10525 10524 10522 10519 10517 10514 10512 10510 10507 10504 10502 10499 10496 10493 10490 10486 10483 10479 10475 10472 10469 10465 10462 10459 10456 10454 10450 10449 10446 10444 10443 10441 10440 10439 10438 10437 10437 10436 10435 10435 10435 10435 10435 10435 10435 10435
10571 10570 10569 10568 10567 10565 10565 10564 10563 10562 10561 10561 10560 10560 10559 10558 10558 10558 10557 10555 10554 10553 10552 10551 10550 10549 10547 10546 10544 10542 10539 10537 10536 10534 10533 10530 10529 10527 10525 10523 10520 10519 10517 10515 10512 10509 10507 10505 10502 10500 10497 10494 10492 10489 10485 10482 10478 10475 10471 10468 10464 10461 10458 10455 10452 10450 10447 10445 10443 10441 10440 10439 10437 10436 10435 10435 10434 10434 10434 10433 10433 10433 10433 10433 10433 10433
10565 10565 10564 10562 10561 10560 10559 10559 10557 10556 10555 10555 10555 10554 10554 10553 10553 10553 10552 10550 10549 10548 10547 10547 10545 10544 10542 10541 10539 10537 10535 10534 10532 10530 10527 10525 10524 10522 10521 10519 10515 10513 10512 10510 10508 10505 10502 10500 10498 10495 10492 10490 10487 10484 10481 10477 10474 10470 10467 10464 10460 10457 10454 10451 10449 10446 10444 10442 10440 10438 10437 10435 10434 10434 10433 10432 10432 10431 10431 10430 10430 10430 10430 10430 10430 10430
10559 10559 10559 10557 10555 10555 10554 10553 10552 10551 10550 10549 10549 10549 10549 10548 10547 10547 10547 10545 10544 10542 10542 10541 10540 10538 10537 10535 10535 10534 10532 10529 10527 10524 10522 10520 10518 10517 10516 10514 10511 10508 10506 10505 10504 10500 10498 10495 10494 10490 10488 10485 10483 10480 10477 10473 10469 10466 10463 10459 10456 10454 10450 10448 10445 10443 10440 10439 10437 10435 10434 10433 10432 10431 10430 10430 10429 10429 10429 10429 10429 10429 10429 10429 10429 10429
10554 10554 10553 10552 10550 10550 10549 10548 10547 10546 10545 10544 10544 10544 10544 10543 10542 10542 10541 10540 10539 10537 10537 10536 10535 10533 10530 10529 10528 10529 10528 10526 10523 10519 10517 10515 10513 10512 10510 10509 10507 10504 10501 10500 10498 10496 10494 10491 10489 10486 10484 10481 10478 10475 10472 10469 10465 10462 10459 10455 10452 10449 10447 10444 10442 10439 10437 10435 10434 10432 10431 10430 10429 10428 10427 10427 10427 10426 10426 10426 10426 10426 10426 10426 10426 10426
10549 10549 10548 10547 10546 10545 10544 10543 10542 10541 10540 10540 10539 10539 10539 10538 10537 10536 10535 10534 10533 10532 10532 10530 10530 10528 10525 10523 10521 10521 10522 10522 10519 10515 10512 10510 10509 10507 10506 10505 10502 10499 10497 10495 10494 10491 10489 10486 10484 10482 10479 10477 10474 10470 10467 10464 10460 10457 10454 10451 10448 10445 10443 10440 10438 10435 10434 10432 10430 10429 10428 10427 10426 10425 10425 10425 10424 10424 10424 10424 10424 10424 10424 10424 10424 10424
10543 10543 10543 10542 10541 10540 10539 10538 10537 10536 10535 10535 10535 10534 10534 10533 10532 10531 10530 10529 10528 10527 10526 10525 10524 10522 10521 10519 10517 10515 10516 10516 10514 10510 10507 10505 10504 10502 10500 10499 10497 10494 10492 10490 10489 10487 10484 10482 10479 10477 10475 10472 10469 10466 10463 10459 10456 10453 10450 10447 10444 10441 10439 10437 10434 10432 10430 10429 10427 10426 10425 10424 10424 10423 10422 10422 10422 10421 10421 10421 10421 10421 10422 10422 10422 10422
10538 10537 10538 10537 10536 10535 10534 10533 10532 10531 10530 10530 10530 10530 10529 10528 10527 10525 10524 10523 10522 10522 10521 10520 10518 10517 10515 10514 10512 10511 10511 10510 10509 10505 10502 10500 10499 10498 10496 10494 10492 10489 10487 10485 10484 10482 10479 10477 10474 10472 10470 10467 10465 10461 10458 10455 10452 10449 10445 10442 10440 10437 10435 10433 10430 10429 10427 10425 10424 10423 10422 10421 10420 10420 10420 10419 10419 10419 10419 10419 10419 10419 10419 10419 10419 10419
10532 10532 10532 10532 10532 10531 10529 10527 10527 10526 10526 10525 10525 10525 10524 10523 10522 10520 10519 10517 10517 10516 10515 10514 10513 10511 10510 10509 10507 10507 10506 10505 10504 10500 10497 10495 10494 10493 10492 10490 10487 10484 10482 10480 10479 10477 10475 10472 10470 10468 10465 10463 10460 10457 10454 10450 10447 10444 10441 10438 10435 10433 10431 10429 10427 10425 10424 10422 10421 10420 10419 10418 10418 10417 10417 10417 10417 10417 10416 10416 10417 10417 10417 10417 10417 10417
10528 10527 10526 10527 10527 10527 10525 10522 10521 10521 10521 10520 10520 10519 10519 10517 10517 10515 10514 10512 10512 10510 10509 10509 10507 10506 10505 10504 10502 10502 10501 10500 10499 10495 10492 10490 10489 10488 10487 10485 10482 10480 10477 10475 10474 10472 10470 10467 10465 10464 10461 10458 10455 10452 10449 10445 10442 10439 10437 10434 10432 10429 10427 10425 10423 10422 10420 10419 10418 10417 10416 10415 10415 10414 10414 10414 10414 10414 10414 10414 10414 10414 10414 10414 10414 10415
10523 10522 10521 10521 10522 10522 10520 10518 10517 10516 10515 10515 10515 10514 10513 10512 10511 10510 10508 10507 10506 10505 10504 10503 10502 10500 10500 10499 10498 10497 10495 10495 10494 10491 10488 10485 10484 10482 10481 10480 10477 10475 10472 10470 10469 10467 10465 10463 10460 10459 10456 10454 10450 10447 10444 10441 10438 10435 10432 10430 10427 10425 10423 10421 10420 10418 10417 10415 10415 10414 10413 10412 10412 10412 10412 10412 10412 10412 10412 10412 10412 10412 10412 10412 10412 10412
10518 10517 10516 10516 10516 10515 10515 10514 10512 10511 10510 10510 10509 10509 10507 10507 10506 10505 10503 10502 10500 10500 10499 10497 10496 10495 10494 10493 10492 10492 10490 10490 10489 10486 10484 10481 10479 10477 10476 10475 10472 10470 10467 10465 10464 10463 10460 10458 10455 10454 10451 10449 10445 10442 10439 10436 10433 10430 10428 10425 10423 10421 10419 10417 10416 10415 10414 10412 10411 10410 10410 10410 10409 10409 10409 10409 10409 10409 10409 10409 10409 10409 10409 10409 10409 10409
10512 10512 10511 10511 10510 10510 10510 10509 10507 10506 10505 10504 10504 10503 10502 10502 10501 10500 10499 10497 10495 10495 10494 10492 10491 10489 10488 10487 10486 10486 10485 10484 10483 10481 10479 10476 10474 10472 10470 10469 10468 10465 10463 10460 10459 10458 10456 10454 10451 10449 10446 10444 10440 10437 10434 10432 10429 10426 10424 10421 10419 10417 10415 10414 10412 10411 10410 10409 10408 10407 10407 10407 10407 10406 10406 10406 10407 10407 10407 10407 10407 10407 10407 10407 10407 10407
10506 10506 10505 10505 10505 10505 10504 10504 10502 10501 10500 10499 10498 10497 10497 10496 10495 10494 10492 10492 10490 10489 10488 10487 10485 10483 10482 10481 10480 10480 10479 10477 10477 10475 10474 10472 10470 10467 10465 10464 10462 10461 10459 10456 10455 10453 10451 10449 10446 10443 10441 10439 10435 10432 10430 10427 10424 10422 10419 10417 10415 10414 10412 10410 10409 10408 10407 10406 10405 10405 10404 10404 10404 10404 10404 10404 10404 10404 10404 10404 10404 10404 10404 10404 10404 10404
10500 10500 10500 10500 10500 10499 10499 10498 10497 10496 10495 10494 10492 10492 10491 10490 10489 10488 10486 10485 10484 10484 10483 10481 10479 10477 10476 10475 10475 10474 10473 10472 10470 10470 10469 10467 10465 10462 10460 10458 10457 10456 10454 10452 10450 10448 10446 10444 10441 10438 10436 10433 10430 10427 10425 10422 10420 10417 10415 10413 10411 10410 10408 10407 10405 10404 10404 10402 10402 10402 10401 10401 10401 10401 10401 10401 10401 10401 10402 10402 10402 10402 10402 10402 10402 10402
10494 10494 10494 10494 10494 10493 10493 10492 10492 10490 10489 10488 10487 10486 10485 10484 10484 10482 10480 10479 10478 10478 10477 10475 10473 10472 10470 10469 10469 10468 10467 10466 10465 10464 10463 10462 10460 10457 10455 10454 10452 10450 10449 10447 10444 10442 10440 10439 10436 10434 10430 10428 10425 10423 10420 10417 10415 10413 10411 10409 10407 10406 10404 10403 10402 10401 10400 10399 10399 10399 10399 10398 10398 10398 10398 10399 10399 10399 10399 10399 10399 10399 10399 10399 10399 10399
10487 10487 10487 10487 10487 10487 10487 10486 10485 10485 10484 10482 10482 10480 10480 10479 10478 10476 10474 10472 10472 10472 10472 10469 10467 10466 10465 10464 10463 10462 10461 10460 10460 10459 10458 10456 10454 10452 10450 10449 10447 10446 10444 10442 10440 10437 10435 10433 10431 10429 10425 10423 10420 10418 10415 10413 10411 10409 10407 10405 10404 10402 10401 10400 10399 10398 10397 10396 10396 10395 10395 10395 10395 10395 10395 10395 10395 10396 10396 10396 10396 10396 10396 10396 10396 10396
10480 10480 10480 10480 10480 10480 10480 10480 10479 10479 10478 10477 10476 10475 10474 10473 10472 10470 10469 10467 10467 10466 10465 10463 10462 10460 10460 10459 10458 10456 10455 10454 10454 10454 10453 10452 10449 10446 10444 10444 10442 10440 10439 10437 10435 10432 10429 10427 10425 10424 10420 10418 10415 10413 10410 10409 10406 10404 10402 10401 10400 10399 10397 10396 10395 10394 10394 10393 10393 10393 10392 10392 10392 10392 10393 10393 10393 10393 10393 10394 10394 10394 10394 10394 10394 10393
10474 10474 10474 10474 10474 10474 10474 10474 10474 10472 10472 10471 10470 10469 10468 10467 10466 10465 10464 10462 10462 10460 10459 10457 10456 10455 10454 10454 10452 10451 10449 10448 10447 10448 10448 10447 10444 10441 10439 10439 10437 10435 10433 10432 10430 10427 10423 10420 10419 10418 10415 10413 10410 10408 10406 10404 10402 10400 10399 10397 10395 10395 10394 10392 10392 10391 10390 10390 10390 10390 10390 10390 10390 10390 10390 10390 10390 10390 10390 10390 10390 10390 10390 10390 10390 10390
10466 10467 10467 10467 10467 10467 10467 10467 10467 10466 10465 10465 10464 10463 10462 10461 10460 10459 10458 10457 10456 10455 10454 10452 10450 10449 10449 10448 10447 10446 10444 10442 10442 10442 10442 10441 10439 10437 10434 10434 10432 10430 10427 10426 10425 10423 10419 10415 10413 10412 10410 10408 10405 10403 10401 10399 10397 10396 10394 10393 10392 10391 10390 10389 10389 10388 10387 10387 10387 10387 10387 10387 10387 10387 10387 10387 10387 10387 10387 10387 10387 10387 10387 10388 10388 10388
10459 10460 10460 10460 10460 10460 10460 10460 10460 10460 10459 10458 10457 10457 10456 10455 10454 10454 10452 10451 10450 10449 10447 10446 10445 10444 10443 10442 10442 10441 10440 10438 10437 10436 10436 10435 10434 10432 10429 10429 10427 10425 10422 10420 10419 10417 10415 10412 10409 10406 10404 10403 10400 10399 10397 10395 10394 10392 10390 10389 10388 10387 10387 10385 10385 10385 10384 10384 10384 10384 10384 10384 10384 10384 10384 10384 10384 10384 10384 10385 10385 10385 10385 10385 10385 10385
10452 10452 10452 10452 10453 10454 10454 10454 10454 10453 10452 10452 10450 10450 10449 10449 10448 10447 10446 10445 10444 10443 10442 10440 10440 10439 10437 10436 10435 10435 10434 10434 10432 10432 10431 10430 10429 10427 10424 10423 10422 10420 10417 10415 10412 10410 10409 10407 10404 10402 10399 10397 10395 10394 10392 10390 10389 10388 10387 10385 10384 10384 10383 10382 10382 10381 10381 10381 10381 10381 10381 10381 10381 10381 10381 10381 10382 10382 10382 10382 10382 10382 10382 10382 10382 10383
10445 10445 10445 10445 10446 10446 10447 10447 10446 10446 10445 10445 10444 10444 10443 10442 10442 10441 10440 10439 10438 10437 10436 10435 10434 10434 10432 10431 10430 10429 10428 10427 10427 10426 10426 10425 10424 10422 10419 10417 10416 10414 10412 10410 10407 10405 10403 10401 10399 10397 10395 10392 10390 10389 10388 10386 10385 10384 10382 10382 10380 10380 10379 10379 10379 10378 10378 10378 10378 10378 10378 10378 10378 10378 10379 10379 10379 10379 10379 10379 10379 10379 10379 10379 10380 10380
10438 10438 10438 10438 10439 10439 10439 10439 10439 10439 10439 10438 10437 10437 10437 10436 10435 10434 10434 10432 10432 10431 10430 10430 10429 10428 10427 10427 10425 10425 10423 10422 10420 10420 10421 10420 10419 10417 10414 10412 10410 10409 10407 10404 10402 10400 10398 10395 10394 10392 10390 10388 10386 10385 10384 10382 10381 10380 10379 10377 10377 10376 10375 10375 10375 10375 10375 10375 10375 10375 10375 10375 10375 10375 10375 10375 10375 10375 10376 10376 10376 10376 10376 10377 10377 10377
10431 10430 10430 10430 10431 10432 10432 10432 10432 10432 10432 10432 10431 10430 10430 10430 10429 10428 10427 10427 10426 10425 10425 10424 10424 10422 10422 10422 10421 10420 10419 10417 10416 10415 10415 10414 10413 10411 10409 10407 10405 10403 10401 10399 10396 10394 10392 10390 10389 10387 10385 10384 10382 10380 10379 10378 10377 10376 10375 10374 10373 10373 10372 10372 10372 10372 10372 10372 10372 10372 10372 10372 10372 10372 10372 10372 10373 10373 10373 10373 10373 10373 10373 10374 10374 10373
10424 10424 10424 10424 10424 10425 10425 10425 10425 10425 10425 10425 10425 10424 10424 10423 10422 10422 10421 10420 10420 10420 10419 10419 10418 10417 10417 10416 10415 10415 10414 10412 10411 10410 10410 10409 10407 10405 10404 10401 10399 10397 10395 10393 10391 10389 10387 10385 10384 10382 10380 10379 10377 10376 10375 10374 10373 10372 10371 10370 10370 10369 10369 10369 10369 10369 10369 10369 10369 10369 10369 10369 10369 10369 10369 10370 10370 10370 10370 10370 10370 10370 10370 10370 10370 10370
10416 10417 10417 10417 10417 10418 10419 10419 10419 10419 10419 10419 10419 10418 10417 10417 10416 10415 10415 10415 10414 10414 10414 10413 10412 10412 10411 10410 10410 10409 10408 10407 10406 10405 10404 10403 10402 10400 10398 10396 10394 10391 10389 10388 10386 10384 10382 10380 10379 10377 10375 10374 10373 10372 10370 10370 10369 10368 10367 10367 10366 10366 10365 10365 10365 10365 10365 10365 10365 10365 10365 10366 10366 10366 10366 10367 10367 10367 10367 10367 10367 10367 10367 10367 10367 10367
10409 10409 10409 10410 10410 10410 10412 10412 10413 10412 10412 10412 10412 10411 10410 10410 10410 10409 10409 10409 10409 10409 10408 10407 10407 10406 10405 10405 10404 10403 10402 10401 10400 10400 10399 10397 10395 10394 10392 10390 10388 10385 10384 10382 10380 10379 10377 10375 10374 10372 10371 10370 10369 10367 10367 10365 10365 10364 10364 10363 10362 10362 10362 10362 10362 10362 10362 10362 10362 10362 10362 10363 10363 10363 10364 10364 10364 10364 10364 10364 10364 10364 10364 10364 10364 10363
10401 10402 10402 10402 10403 10404 10405 10406 10406 10406 10405 10405 10405 10404 10404 10404 10404 10403 10403 10403 10402 10402 10402 10402 10401 10400 10400 10399 10399 10397 10397 10395 10395 10394 10393 10392 10390 10388 10386 10384 10382 10380 10379 10377 10375 10374 10372 10370 10369 10368 10367 10365 10364 10364 10362 10362 10361 10360 10360 10359 10359 10359 10359 10359 10359 10359 10359 10359 10359 10359 10359 10360 10360 10360 10360 10360 10360 10360 10360 10360 10360 10360 10360 10360 10360 10360
10394 10394 10395 10395 10396 10397 10399 10399 10399 10399 10399 10398 10398 10397 10397 10397 10397 10397 10397 10397 10397 10396 10396 10395 10395 10395 10394 10393 10392 10392 10391 10390 10389 10388 10387 10385 10384 10382 10380 10379 10377 10375 10373 10372 10370 10369 10367 10366 10365 10364 10362 10362 10360 10359 10359 10358 10357 10357 10356 10356 10355 10355 10355 10355 10355 10355 10356 10356 10356 10356 10357 10357 10357 10357 10357 10357 10357 10357 10357 10357 10357 10357 10357 10357 10357 10356
10386 10387 10387 10388 10389 10390 10392 10392 10392 10392 10391 10391 10391 10391 10390 10390 10390 10390 10390 10390 10390 10390 10390 10390 10389 10389 10388 10387 10386 10385 10385 10384 10384 10382 10381 10380 10378 10376 10374 10373 10371 10369 10368 10367 10365 10364 10362 10362 10360 10359 10358 10357 10357 10355 10355 10354 10354 10353 10353 10352 10352 10352 10352 10352 10352 10352 10353 10353 10353 10353 10354 10354 10354 10354 10354 10354 10354 10354 10354 10354 10354 10354 10354 10354 10353 10353
10378 10379 10380 10381 10382 10384 10384 10384 10384 10384 10384 10384 10384 10384 10384 10384 10384 10384 10385 10384 10384 10384 10384 10384 10384 10383 10382 10381 10380 10379 10378 10377 10377 10376 10375 10374 10372 10370 10369 10367 10365 10364 10363 10362 10360 10359 10358 10357 10356 10355 10354 10354 10352 10352 10351 10350 10350 10350 10349 10349 10349 10349 10349 10349 10349 10349 10350 10350 10350 10350 10350 10350 10350 10350 10351 10351 10351 10351 10351 10351 10351 10350 10350 10350 10349 10349
10370 10371 10373 10374 10375 10376 10376 10377 10377 10377 10377 10377 10377 10377 10377 10377 10377 10378 10379 10379 10378 10378 10378 10378 10377 10377 10376 10375 10374 10373 10372 10371 10370 10370 10369 10367 10366 10365 10363 10362 10360 10359 10358 10357 10355 10354 10353 10352 10352 10350 10350 10349 10349 10348 10347 10347 10346 10346 10345 10345 10345 10345 10345 10345 10345 10346 10346 10346 10347 10347 10347 10347 10347 10347 10348 10348 10348 10348 10348 10348 10347 10347 10347 10347 10346 10345
10363 10364 10365 10367 10367 10368 10369 10369 10369 10369 10370 10370 10370 10370 10370 10370 10371 10372 10372 10372 10372 10372 10372 10372 10371 10370 10370 10369 10367 10367 10365 10365 10364 10364 10362 10362 10360 10359 10358 10357 10355 10354 10353 10352 10350 10350 10349 10348 10347 10347 10346 10345 10345 10344 10344 10343 10343 10342 10342 10342 10342 10342 10342 10342 10342 10343 10343 10343 10344 10344 10344 10344 10344 10344 10344 10344 10344 10345 10345 10344 10344 10344 10343 10343 10342 10342
10355 10357 10358 10359 10360 10360 10360 10361 10362 10362 10363 10363 10363 10363 10364 10364 10365 10365 10365 10366 10366 10366 10366 10365 10365 10364 10363 10362 10361 10360 10359 10358 10357 10357 10357 10355 10354 10354 10352 10351 10350 10349 10348 10347 10346 10345 10344 10344 10343 10342 10342 10341 10341 10340 10340 10340 10339 10339 10339 10339 10339 10339 10339 10339 10339 10339 10340 10340 10340 10340 10341 10341 10341 10341 10341 10341 10341 10341 10341 10341 10340 10340 10340 10339 10339 10339
10349 10349 10350 10351 10352 10352 10353 10354 10354 10355 10355 10355 10356 10356 10357 10357 10358 10359 10359 10360 10360 10360 10360 10359 10358 10357 10357 10355 10355 10354 10353 10352 10352 10351 10350 10350 10349 10348 10347 10346 10345 10344 10344 10342 10342 10340 10340 10340 10339 10339 10338 10337 10337 10337 10336 10336 10336 10336 10335 10335 10336 10336 10336 10336 10336 10336 10337 10337 10337 10337 10338 10338 10338 10338 10337 10338 10338 10337 10337 10337 10337 10337 10336 10336 10335 10335
10341 10342 10343 10344 10344 10345 10345 10346 10347 10347 10348 10349 10349 10349 10350 10350 10351 10352 10353 10353 10354 10354 10353 10352 10352 10351 10350 10349 10349 10347 10347 10346 10345 10345 10344 10344 10343 10342 10342 10341 10340 10339 10339 10338 10337 10337 10336 10335 10335 10335 10334 10334 10334 10333 10333 10333 10333 10332 10332 10332 10332 10332 10332 10332 10333 10334 10334 10334 10334 10334 10334 10334 10334 10334 10334 10334 10334 10334 10334 10334 10334 10333 10333 10332 10332 10332
10334 10335 10335 10336 10337 10337 10338 10339 10340 10340 10341 10342 10342 10343 10343 10344 10345 10345 10347 10347 10347 10347 10347 10345 10345 10344 10344 10343 10342 10342 10341 10340 10340 10339 10339 10339 10338 10337 10337 10336 10335 10335 10334 10334 10333 10332 10332 10331 10331 10330 10330 10330 10330 10330 10329 10329 10329 10329 10329 10329 10329 10329 10329 10329 10330 10330 10330 10330 10330 10331 10331 10331 10331 10331 10331 10330 10330 10330 10330 10330 10330 10330 10329 10329 10329 10328
10326 10327 10328 10329 10329 10330 10331 10332 10332 10333 10334 10335 10335 10336 10337 10337 10338 10339 10340 10341 10341 10340 10340 10339 10339 10338 10337 10337 10336 10335 10335 10335 10334 10334 10334 10333 10333 10332 10332 10331 10330 10330 10329 10329 10329 10328 10328 10327 10327 10327 10327 10327 10327 10326 10326 10326 10326 10326 10326 10325 10326 10326 10326 10326 10327 10327 10327 10327 10327 10327 10328 10327 10327 10327 10327 10327 10327 10326 10326 10326 10326 10325 10325 10325 10325 10324
10318 10319 10320 10321 10322 10323 10324 10325 10325 10326 10327 10328 10329 10329 10330 10330 10331 10332 10334 10334 10334 10334 10334 10333 10332 10332 10332 10330 10330 10330 10329 10329 10329 10329 10328 10328 10328 10327 10327 10326 10326 10325 10325 10325 10324 10324 10324 10324 10323 10323 10323 10323 10323 10323 10323 10322 10322 10322 10322 10322 10322 10322 10323 10323 10323 10324 10324 10324 10324 10324 10324 10324 10324 10324 10324 10324 10323 10323 10322 10322 10322 10322 10322 10322 10321 10320